Wind_Speed
12 9 8 9 6 9 5 12 3 11 13 10 9 16 9 20 15 7 13 12 18 20 22 20 20 19 19 21 19 18 17 15 13 13 13 13 15 15 14 12 10 9 10 12 14 15 16 17 18
7 9 9 11 9 4 10 10 10 12 11 7 5 5 13 14 15 13 14 18 20 20 22 20 19 19 18 20 20 18 16 14 13 12 12 12 14 14 13 11 9 8 10 13 15 16 17 18 19
7 8 13 6 15 7 12 12 8 8 6 5 3 6 9 9 9 10 10 22 22 19 20 19 18 18 18 19 19 17 16 14 13 12 12 12 13 13 12 10 8 8 12 14 17 18 18 18 18
5 7 10 10 16 12 14 11 10 3 6 6 8 11 11 9 4 6 20 21 21 20 18 19 18 18 17 17 19 17 16 15 13 13 12 13 12 12 11 11 9 10 13 14 15 17 17 16 15
7 12 11 13 3 8 13 10 12 9 7 8 9 14 16 10 8 16 20 20 19 18 17 19 18 17 17 17 17 17 16 15 14 13 13 13 13 13 12 11 10 11 13 14 15 15 15 15 14
12 8 11 13 9 7 13 10 11 10 13 15 12 13 10 8 11 16 18 18 17 17 14 20 18 17 17 17 16 16 16 15 15 14 13 14 13 13 13 12 12 12 13 14 15 16 15 14 13
14 9 15 14 15 7 11 7 12 11 15 12 7 16 8 8 9 13 16 18 18 16 15 20 19 17 16 16 16 15 15 15 14 14 14 14 14 13 14 14 13 13 13 14 14 14 13 12 10
10 7 16 7 6 12 5 4 9 10 15 19 16 11 13 5 8 12 14 15 16 17 15 18 21 19 18 17 17 16 15 15 14 14 14 15 14 14 14 15 14 14 14 14 14 14 12 12 10
7 9 10 5 3 10 6 5 10 1 17 19 19 16 7 5 7 10 12 14 15 15 16 17 19 21 20 18 18 17 17 16 16 15 15 16 15 16 16 16 16 16 16 16 15 14 12 11 11
8 10 9 12 9 6 5 7 9 4 13 16 17 17 13 6 4 8 10 13 15 16 18 18 19 18 19 16 17 19 19 19 18 18 18 17 14 15 14 16 17 18 17 18 18 16 15 12 10
3 6 10 11 5 4 4 11 14 11 13 15 15 16 16 9 1 5 9 12 14 16 17 19 20 21 20 17 16 18 16 16 17 17 18 17 14 14 15 15 20 20 20 20 20 19 18 16 11
8 4 2 6 6 6 5 5 13 16 11 11 10 11 13 13 11 3 7 11 14 17 18 18 19 20 21 18 18 17 17 18 17 18 19 17 17 16 16 16 16 21 21 21 20 19 20 16 16
4 10 9 7 4 11 3 5 12 15 13 10 9 9 11 12 12 11 6 6 12 16 17 18 19 21 20 22 19 19 19 19 18 19 21 21 19 18 18 18 16 17 17 20 18 19 18 19 18
7 10 9 7 6 8 4 11 5 15 11 8 9 10 11 12 13 12 14 7 7 13 17 18 19 21 21 22 22 20 21 21 21 20 21 24 21 20 19 19 19 19 19 19 20 19 19 19 19
12 14 8 11 5 4 2 12 12 12 11 11 11 14 14 16 18 19 17 14 7 8 15 16 18 20 21 22 23 22 20 21 21 22 24 24 25 24 22 21 21 21 21 22 21 22 21 20 20
11 11 11 9 3 3 7 14 13 13 12 16 16 16 17 20 20 21 20 18 14 13 9 15 18 18 22 22 22 22 22 22 22 22 23 26 26 27 25 23 23 22 22 21 23 22 22 22 21
11 10 9 8 7 4 6 12 12 14 17 19 19 20 21 21 23 24 24 23 21 20 12 4 14 18 18 20 23 24 24 24 23 23 24 26 27 29 30 25 25 25 24 25 24 25 24 23 23
12 10 6 9 5 16 19 17 14 16 18 19 19 21 24 26 27 25 26 29 28 26 21 10 4 10 17 19 22 24 25 26 26 26 27 28 28 30 34 32 29 28 26 27 27 26 26 26 24
11 14 13 12 7 15 16 16 15 16 19 20 20 20 21 24 24 25 26 29 33 34 31 27 17 6 5 16 22 26 27 28 28 28 30 31 33 32 34 36 37 35 32 31 29 30 30 27 26
12 17 14 10 12 13 16 16 14 16 16 18 18 19 19 20 23 25 27 29 31 33 33 32 29 21 11 11 15 26 29 29 29 30 31 33 33 36 36 38 38 38 38 35 36 32 31 29 28
9 9 12 16 12 14 17 13 12 13 13 13 15 15 17 19 21 22 26 29 30 32 33 32 34 32 23 16 15 16 24 31 33 31 31 32 36 40 40 38 39 41 38 40 41 41 37 35 29
10 6 8 13 17 8 12 7 6 8 9 12 12 14 15 16 18 20 22 24 27 28 28 29 32 36 40 31 14 19 19 22 29 31 32 32 32 36 41 41 41 41 42 44 45 44 43 41 37
9 7 7 10 11 10 9 8 10 3 7 8 10 13 14 15 16 18 19 21 23 24 24 25 26 33 38 41 38 23 20 22 26 32 32 32 32 33 37 40 41 43 44 45 44 43 41 42 44
11 10 8 5 6 7 3 9 8 7 4 5 7 10 13 15 15 17 17 18 21 22 24 26 27 28 32 34 39 43 33 23 23 28 24 27 28 33 36 38 41 43 46 45 46 45 45 46 47
9 13 6 8 6 1 5 6 10 8 4 5 6 10 11 13 15 17 18 20 22 24 24 24 26 28 30 31 30 33 39 41 34 24 16 25 28 29 29 35 38 43 46 48 45 45 46 50 47
10 11 5 8 6 9 5 6 7 8 6 5 5 7 9 11 13 16 18 19 21 22 23 24 26 26 29 32 31 29 29 33 38 38 31 15 19 23 28 28 33 39 42 44 47 47 47 47 50
7 6 6 1 5 3 9 9 7 9 9 5 3 4 6 9 12 13 15 17 19 21 23 23 24 26 27 30 33 30 28 30 30 34 35 33 25 20 27 32 32 31 40 43 44 47 48 47 48
7 6 4 3 5 6 8 12 6 15 11 7 5 1 4 7 10 12 14 16 18 19 20 22 24 26 25 28 28 31 32 28 29 30 31 32 33 33 22 19 26 35 36 36 43 45 47 48 48
5 7 5 2 3 3 5 5 12 13 7 4 2 1 4 7 9 11 12 15 17 18 21 23 23 25 26 26 28 29 31 31 31 28 29 30 31 31 31 29 23 14 23 36 36 46 46 46 47
6 4 7 5 9 3 5 6 8 10 8 3 2 3 5 6 9 11 13 15 17 20 22 23 24 24 24 26 26 27 30 32 32 31 33 32 31 32 28 31 31 27 17 21 23 29 50 48 47
Wind_Direction
311 327 323 281 250 218 91 87 45 43 75 44 45 23 25 38 8 43 135 140 148 153 159 155 156 157 165 168 173 173 171 164 157 153 145 146 150 152 150 147 141 127 127 122 119 121 120 117 115
317 281 287 272 257 278 81 55 58 54 61 59 67 326 35 66 46 108 134 146 149 152 160 158 155 156 164 171 177 179 176 172 164 159 155 154 155 159 160 159 153 137 136 132 127 126 124 120 119
305 266 273 246 261 42 85 56 40 81 67 18 23 50 31 35 55 119 144 149 149 151 156 162 158 156 163 173 180 184 182 179 174 171 167 165 163 164 168 168 165 153 147 143 139 137 133 130 127
270 247 250 251 250 69 61 51 21 61 113 37 352 83 88 37 74 131 141 146 148 152 156 165 164 158 162 172 183 187 187 186 185 180 177 173 172 169 172 173 168 159 154 149 143 139 135 130 128
254 262 262 236 279 79 70 39 33 45 34 17 348 78 71 48 94 129 139 148 151 154 173 173 173 166 165 170 183 189 190 192 192 186 183 181 179 178 176 173 168 163 158 153 145 140 138 139 141
248 258 249 235 155 111 73 19 31 20 34 27 37 78 62 79 112 137 145 152 155 158 172 179 180 177 173 174 179 190 196 195 192 190 189 187 183 181 182 176 170 167 164 160 156 154 152 153 155
250 259 256 276 116 154 38 352 27 6 32 35 356 69 82 85 129 145 151 155 158 164 169 181 184 187 184 182 186 193 199 197 195 194 192 189 185 184 182 180 177 176 173 170 167 164 163 165 166
265 284 268 251 169 91 39 60 23 25 61 47 33 33 27 63 139 152 157 160 163 168 173 184 189 192 192 192 192 195 200 202 202 200 195 192 190 190 189 185 185 185 184 182 179 179 180 184 185
249 254 244 151 318 102 66 357 25 322 85 42 43 33 36 74 141 159 166 172 174 178 181 183 187 196 197 198 200 199 203 207 208 207 203 197 197 196 198 195 193 194 193 192 191 194 197 202 207
239 245 35 51 45 58 58 33 3 18 40 31 28 29 36 70 139 182 192 192 194 192 190 191 188 192 197 191 205 204 208 210 211 211 209 205 197 206 208 212 202 203 202 201 202 205 208 209 213
193 319 114 71 46 347 7 64 36 4 48 21 16 20 28 42 84 214 221 216 213 209 204 200 195 193 194 192 204 201 204 207 213 213 218 199 207 213 206 218 213 209 209 209 212 215 217 217 213
139 53 27 74 59 24 39 68 67 45 24 3 12 16 22 27 23 337 249 235 223 216 213 208 208 204 199 198 204 206 207 209 211 215 217 202 207 215 213 215 220 215 217 214 221 222 227 228 234
164 121 106 81 114 27 342 65 97 31 3 0 9 18 19 19 21 20 343 265 235 224 220 218 213 210 211 200 211 208 209 217 215 215 218 213 215 217 218 215 221 219 216 221 218 223 231 231 232
134 138 102 56 105 49 11 84 9 12 9 20 25 29 30 27 24 25 18 348 264 235 227 223 219 221 215 213 208 218 216 216 215 220 219 222 216 221 222 218 220 222 221 226 224 228 228 236 235
148 141 112 42 91 88 140 94 39 17 25 34 34 39 44 38 31 27 17 10 350 266 239 232 228 223 226 226 221 219 223 224 226 218 225 222 222 221 223 224 224 223 227 224 229 229 232 232 239
180 189 187 61 115 200 240 77 40 37 44 53 51 51 51 43 37 32 27 24 10 15 265 240 237 233 233 227 232 231 231 231 230 233 226 230 223 221 230 225 229 227 226 232 229 231 231 236 235
197 195 178 102 39 159 175 101 55 53 59 58 58 57 52 45 41 37 33 27 20 14 28 285 247 243 244 242 236 239 237 236 237 236 237 236 231 226 221 232 229 231 228 229 234 232 232 236 239
179 135 151 114 93 100 100 98 74 65 69 65 64 63 58 52 45 43 39 35 33 30 26 35 16 250 255 248 247 246 245 245 239 237 236 237 237 236 227 226 231 229 231 230 232 232 235 235 237
145 142 118 122 97 109 104 98 87 72 69 71 67 61 57 53 47 44 41 37 36 35 31 23 8 326 285 258 254 251 249 249 250 245 240 237 236 237 239 231 232 229 228 230 232 233 232 234 240
146 134 122 118 173 134 118 102 92 84 76 65 64 60 51 47 44 41 39 37 35 35 34 29 22 8 326 313 285 263 256 255 255 255 251 241 241 240 240 244 230 234 232 230 230 229 232 239 232
127 146 172 136 153 134 130 106 112 99 85 78 71 58 52 44 42 40 38 37 37 36 34 31 29 23 4 295 276 268 261 260 258 254 254 255 239 241 243 239 245 234 234 234 239 236 231 230 236
128 102 129 154 164 182 226 127 111 103 92 73 62 54 48 42 39 38 35 36 33 34 34 35 31 29 26 12 322 274 292 278 262 258 256 258 257 252 247 246 240 245 234 238 239 246 243 238 234
124 165 168 173 215 165 180 244 120 169 95 62 43 44 37 39 35 34 32 32 30 28 26 24 24 22 23 22 20 359 297 281 259 272 265 263 257 253 251 247 246 241 244 237 241 236 242 241 242
137 155 158 201 161 230 162 267 147 146 90 55 41 46 38 39 38 37 32 26 25 20 22 19 20 17 15 16 13 16 14 342 298 261 266 267 267 257 252 250 248 247 245 243 239 241 236 242 244
203 176 155 190 198 129 134 229 80 121 99 72 52 52 50 44 39 32 29 26 21 20 16 14 11 13 11 13 7 8 9 11 9 351 286 276 265 268 265 253 250 247 248 249 245 240 241 239 237
189 209 294 220 197 142 156 187 154 124 125 116 86 68 52 44 35 26 21 18 17 15 12 11 9 0 0 359 8 3 357 360 1 2 358 345 289 269 257 254 251 250 250 250 251 245 243 240 241
153 214 43 124 39 257 150 91 134 162 160 155 94 63 44 28 22 18 15 14 11 10 7 7 5 5 357 349 348 359 352 353 353 348 354 353 0 338 268 256 253 253 251 254 256 249 244 241 240
288 116 174 217 191 213 184 170 139 178 173 164 167 32 20 9 4 3 3 5 5 4 1 1 358 358 355 355 347 343 352 347 344 344 343 341 347 353 346 290 265 254 253 255 256 256 250 244 241
173 188 241 319 305 258 192 135 108 152 160 180 188 276 341 342 351 354 358 357 356 356 356 355 352 351 349 351 349 345 336 340 341 337 336 333 337 343 346 347 343 294 261 254 259 256 253 246 243
313 221 203 248 174 220 325 93 118 135 152 183 273 254 307 326 338 345 350 353 353 352 350 350 348 348 345 346 343 345 351 342 331 335 329 329 328 333 329 340 343 339 333 270 289 262 255 251 244
Height
1511 1508 1510 1509 1502 1476 1468 1475 1468 1471 1475 1485 1487 1486 1486 1490 1490 1504 1511 1514 1516 1518 1519 1523 1526 1528 1531 1534 1537 1540 1542 1544 1545 1547 1548 1549 1550 1552 1553 1553 1554 1555 1556 1557 1557 1558 1559 1560 1560
1511 1513 1511 1502 1489 1476 1478 1470 1477 1481 1486 1489 1489 1486 1486 1496 1501 1506 1511 1514 1518 1520 1521 1525 1528 1530 1533 1535 1539 1541 1543 1545 1547 1548 1550 1551 1553 1554 1555 1556 1557 1557 1558 1559 1560 1561 1562 1562 1563
1511 1513 1509 1485 1472 1517 1484 1479 1480 1485 1489 1488 1485 1490 1493 1503 1507 1510 1512 1515 1518 1522 1524 1526 1530 1532 1534 1537 1540 1543 1545 1547 1548 1550 1552 1553 1554 1555 1557 1558 1559 1560 1560 1561 1561 1562 1564 1565 1566
1515 1512 1505 1492 1474 1477 1481 1485 1485 1484 1487 1489 1489 1491 1504 1510 1510 1511 1514 1519 1522 1524 1528 1528 1531 1534 1536 1539 1541 1544 1547 1549 1550 1552 1553 1554 1556 1557 1559 1560 1561 1562 1563 1563 1564 1565 1567 1568 1569
1514 1507 1493 1484 1474 1481 1487 1491 1490 1489 1492 1493 1491 1494 1506 1512 1512 1514 1518 1522 1525 1528 1529 1530 1533 1536 1538 1541 1543 1546 1548 1550 1552 1553 1555 1556 1558 1559 1560 1561 1562 1564 1565 1566 1567 1568 1569 1569 1570
1510 1501 1493 1484 1477 1487 1495 1497 1496 1493 1493 1498 1496 1497 1512 1515 1515 1517 1520 1523 1527 1530 1531 1532 1535 1538 1540 1542 1545 1548 1550 1552 1553 1555 1556 1558 1559 1561 1562 1563 1564 1565 1567 1568 1569 1569 1569 1570 1571
1507 1492 1487 1472 1478 1491 1502 1501 1502 1499 1502 1503 1500 1501 1515 1517 1519 1521 1523 1525 1527 1530 1532 1533 1536 1539 1542 1544 1547 1549 1551 1553 1555 1556 1558 1559 1561 1562 1563 1564 1565 1567 1568 1570 1571 1571 1572 1573 1573
1506 1497 1487 1481 1483 1498 1507 1504 1507 1505 1505 1508 1504 1510 1518 1519 1521 1523 1525 1527 1529 1531 1532 1533 1536 1539 1542 1545 1548 1550 1552 1554 1556 1557 1559 1560 1561 1563 1564 1565 1567 1568 1569 1570 1572 1573 1573 1574 1575
1506 1499 1488 1484 1492 1504 1506 1505 1509 1508 1507 1515 1516 1519 1521 1521 1523 1525 1527 1529 1530 1532 1533 1534 1536 1539 1542 1545 1548 1550 1552 1554 1556 1558 1559 1560 1562 1563 1564 1566 1567 1568 1570 1571 1572 1573 1574 1574 1575
1502 1492 1491 1497 1506 1509 1508 1508 1512 1506 1511 1520 1522 1522 1520 1522 1524 1526 1527 1529 1530 1531 1532 1534 1536 1539 1541 1546 1547 1549 1552 1554 1556 1557 1559 1560 1562 1563 1565 1565 1567 1568 1570 1571 1572 1573 1573 1574 1576
1502 1497 1503 1510 1518 1515 1511 1511 1518 1512 1519 1525 1525 1524 1523 1522 1523 1525 1526 1526 1528 1531 1533 1534 1535 1536 1541 1546 1548 1548 1551 1553 1555 1557 1558 1560 1564 1564 1566 1566 1566 1567 1569 1570 1571 1572 1573 1574 1575
1505 1511 1508 1517 1519 1517 1515 1513 1522 1525 1528 1528 1526 1526 1525 1524 1523 1523 1524 1525 1527 1530 1533 1535 1537 1539 1539 1544 1546 1549 1551 1552 1554 1556 1558 1559 1562 1564 1565 1567 1565 1565 1567 1568 1569 1571 1571 1573 1574
1501 1512 1518 1519 1520 1520 1517 1516 1519 1527 1528 1527 1527 1526 1525 1525 1525 1524 1524 1525 1526 1529 1532 1535 1537 1538 1540 1542 1545 1547 1549 1551 1553 1554 1556 1557 1560 1562 1563 1565 1566 1565 1567 1566 1569 1569 1570 1570 1571
1510 1513 1519 1521 1520 1522 1518 1520 1523 1528 1527 1526 1525 1526 1526 1526 1525 1525 1526 1526 1527 1528 1531 1533 1535 1537 1539 1540 1544 1545 1547 1548 1549 1552 1553 1553 1557 1559 1560 1561 1563 1565 1565 1566 1566 1567 1568 1568 1569
1514 1516 1517 1522 1520 1523 1521 1523 1529 1529 1527 1528 1526 1527 1527 1528 1527 1529 1529 1527 1527 1528 1530 1532 1534 1536 1538 1540 1541 1543 1545 1546 1547 1547 1548 1550 1552 1555 1556 1558 1559 1560 1562 1563 1564 1564 1565 1565 1565
1510 1508 1512 1522 1520 1522 1520 1528 1532 1531 1529 1529 1530 1531 1531 1533 1533 1533 1531 1529 1527 1524 1528 1530 1532 1534 1535 1537 1540 1541 1542 1543 1544 1545 1546 1545 1546 1550 1552 1554 1555 1556 1558 1559 1559 1560 1560 1561 1561
1505 1496 1502 1519 1517 1514 1510 1527 1535 1534 1533 1533 1534 1535 1536 1537 1537 1536 1534 1532 1528 1524 1523 1528 1531 1533 1534 1535 1537 1538 1539 1539 1541 1542 1543 1543 1541 1542 1545 1549 1551 1552 1552 1554 1554 1555 1556 1557 1557
1495 1500 1505 1511 1517 1512 1520 1532 1538 1538 1537 1538 1538 1540 1541 1541 1541 1539 1537 1534 1530 1526 1524 1523 1525 1531 1532 1533 1534 1535 1536 1536 1536 1536 1537 1538 1538 1537 1537 1541 1544 1546 1547 1548 1548 1549 1551 1551 1553
1487 1496 1512 1522 1518 1519 1525 1531 1538 1540 1539 1540 1541 1543 1544 1544 1544 1542 1540 1537 1533 1528 1526 1525 1525 1523 1525 1529 1530 1530 1530 1532 1532 1532 1533 1532 1533 1533 1532 1533 1534 1537 1540 1541 1542 1543 1544 1546 1547
1496 1505 1517 1524 1524 1518 1525 1533 1538 1540 1544 1545 1545 1546 1546 1546 1545 1544 1542 1538 1536 1534 1532 1530 1527 1524 1522 1521 1522 1526 1525 1526 1527 1527 1526 1528 1529 1528 1527 1526 1529 1529 1530 1533 1536 1537 1538 1539 1542
1502 1504 1513 1519 1520 1518 1523 1531 1534 1540 1543 1547 1547 1548 1548 1548 1547 1546 1544 1542 1540 1537 1535 1534 1531 1527 1522 1518 1517 1514 1517 1520 1520 1520 1520 1519 1521 1521 1521 1522 1521 1524 1525 1524 1525 1529 1531 1532 1534
1519 1520 1519 1521 1517 1518 1516 1526 1536 1536 1540 1545 1547 1549 1550 1550 1549 1548 1547 1545 1543 1541 1539 1537 1534 1529 1525 1519 1515 1514 1512 1510 1514 1514 1515 1515 1514 1514 1515 1515 1516 1516 1518 1516 1517 1518 1520 1524 1526
1521 1525 1521 1519 1514 1515 1520 1514 1531 1535 1539 1543 1546 1549 1551 1551 1551 1549 1549 1547 1545 1543 1540 1538 1536 1530 1526 1522 1517 1512 1509 1508 1506 1511 1509 1509 1509 1508 1507 1507 1508 1509 1508 1510 1510 1512 1511 1512 1514
1523 1524 1523 1517 1515 1520 1519 1514 1524 1529 1540 1544 1548 1549 1552 1553 1552 1550 1550 1549 1546 1544 1540 1538 1535 1530 1527 1523 1518 1514 1510 1505 1501 1499 1497 1501 1501 1501 1500 1500 1500 1500 1500 1501 1502 1502 1504 1503 1504
1519 1516 1520 1522 1523 1509 1518 1518 1523 1536 1543 1547 1549 1550 1552 1553 1552 1552 1551 1548 1546 1543 1540 1537 1534 1530 1526 1522 1519 1516 1513 1508 1503 1496 1491 1492 1490 1492 1494 1492 1490 1490 1491 1492 1493 1493 1492 1493 1493
1509 1509 1503 1515 1506 1506 1524 1520 1527 1539 1546 1549 1550 1551 1552 1553 1553 1552 1551 1549 1546 1544 1541 1538 1533 1531 1526 1522 1518 1515 1512 1508 1505 1500 1492 1484 1484 1482 1480 1478 1480 1480 1481 1483 1484 1484 1482 1482 1481
1516 1517 1512 1519 1519 1515 1508 1529 1536 1541 1545 1548 1549 1550 1552 1552 1552 1553 1552 1550 1548 1545 1542 1538 1534 1531 1527 1523 1518 1514 1509 1506 1502 1499 1494 1486 1479 1475 1473 1471 1470 1469 1472 1472 1473 1472 1471 1472 1470
1516 1511 1520 1517 1524 1517 1509 1512 1514 1537 1540 1544 1546 1549 1551 1552 1553 1552 1551 1550 1548 1545 1543 1539 1535 1531 1527 1521 1516 1513 1508 1503 1501 1495 1492 1489 1480 1474 1465 1464 1462 1460 1461 1462 1462 1460 1461 1460 1459
1520 1516 1516 1509 1515 1509 1508 1507 1512 1526 1536 1542 1545 1549 1550 1551 1551 1551 1550 1549 1548 1545 1542 1539 1535 1531 1527 1522 1516 1511 1504 1501 1498 1493 1490 1485 1480 1473 1468 1463 1458 1450 1451 1448 1449 1450 1449 1450 1448
1512 1508 1511 1510 1519 1513 1513 1517 1525 1532 1539 1545 1545 1548 1550 1551 1550 1550 1549 1548 1546 1544 1541 1537 1534 1531 1527 1522 1516 1510 1504 1498 1496 1489 1485 1481 1475 1471 1470 1458 1457 1447 1441 1435 1443 1437 1437 1436 1435